Tracking 28096 objects as of 27-Sep-2023
HD Live streaming from Space Station
objects crossing your sky now

STARLINK-3942

Track STARLINK-3942 now!
10-day predictions
STARLINK-3942 is classified as:


NORAD ID: 52563
Int'l Code: 2022-051AG
Perigee: 546.4 km
Apogee: 547.5 km
Inclination: 53.2 °
Period: 95.4 minutes
Semi major axis: 6917 km
RCS: Unknown
Launch date: May 13, 2022
Source: United States (US)
Launch site: AIR FORCE WESTERN TEST RANGE (AFWTR)
Your satellite tracking list
Your tracking list is empty




NASA's NSSDC Master Catalog

Two Line Element Set (TLE):
1 52563U 22051AG  23270.19449279  .00005587  00000-0  36890-3 0  9994
2 52563  53.2168 189.6632 0000805  80.7008 279.4076 15.08831969 76333
Source of the keplerian elements: AFSPC